IRIDIUM 59 [+]

Last updated on Thu Feb 21 2019 03:06:07 GMT+0000 (Coordinated Universal Time)

1 25275U 98019D 19051.44130947 .00000035 00000-0 53982-5 0 9996 2 25275 86.3962 31.0284 0002018 90.2640 269.8787 14.34216482 93966
UTC large
Height (km)
Speed (km/s)
/
Latitude / Longitude
Inclination (degrees)
Orbital Period (minutes)
Azimuth
Elevation
Range (km)
Doppler Factor

Next 0 passes for location: London (51.5072 / 0.1276)

Sorry there are no passes over London.
IRIDIUM 59 [+]